Location: Newark
(43.4306°N, 0.3089°E)
Time: 21:15:30
(UTC+00:00)

Vanguard 3 - Pass Details

Date: 25 August 2019
Orbit: 508 x 3262 km, 33.3° (Epoch: 18 October)

Event Time Altitude Azimuth Distance (km) Brightness Sun altitude
Rises 19:22:50 0° 260° (W) 3,795 11.7 -7.1°
Reaches altitude 10° 19:26:33 10° 246° (WSW) 2,431 10.3 -7.7°
Maximum altitude 19:30:32 21° 198° (SSW) 1,458 8.4 -8.3°
Drops below altitude 10° 19:33:39 10° 147° (SSE) 1,840 8.5 -8.9°
Enters shadow 19:34:01 - 143° (SE) 1,949 8.6 -8.9°
Sets 19:36:01 0° 129° (SE) 2,629 - -9.3°
